• Join FlightAware (Why Join?)
  • Login
  • US Flag GB Flag 
05:35 EST


 

Airport Tracker/Info


-or-


 

Live Flight TrackerFlight Track Log ✈ SWA554 ✈ 20-Apr-2013 ✈ KSMF - KLAX

Flight Track Log - Related Links

Times and Time Zones

All times are in EDT time to prevent confusion due to time zone crossing. See the SWA554 flight status page for this flight to view local times or setup timezone preferences in your user account.

Time Position Orientation Groundspeed Altitude Reporting Facility
EDT Latitude Longitude Course Direction KTS MPH feet Rate Location/Type
22:12 38.7167 -121.6000 90° East 145 167 1,500  Level Northern Cal TRACON
22:13 38.7167 -121.5500 90° East 226 260 4,300 2,842 Climbing Northern Cal TRACON
22:14 38.6833 -121.5000 130° Southeast 246 283 6,900 3,250 Climbing Northern Cal TRACON
22:15 38.6333 -121.4000 123° Southeast 326 375 10,800 3,243 Climbing Northern Cal TRACON
22:15 38.5978 -121.3403 127° Southeast 318 366 12,900 3,396 Climbing Oakland Center
22:16 38.5389 -121.2311 125° Southeast 358 412 16,800 3,787 Climbing Oakland Center
22:17 38.4781 -121.1239 126° Southeast 380 437 20,600 3,787 Climbing Oakland Center
22:18 38.4003 -120.9822 125° Southeast 402 463 24,500 3,197 Climbing Oakland Center
22:19 38.3297 -120.8561 125° Southeast 428 493 27,100 2,459 Climbing Oakland Center
22:20 38.2556 -120.7236 125° Southeast 452 520 29,500 2,213 Climbing Oakland Center
22:22 38.1611 -120.6092 136° Southeast 464 534 31,600 2,430 Climbing Oakland Center
22:23 38.0553 -120.5069 143° Southeast 475 547 34,400 2,579 Climbing Oakland Center
22:24 37.9522 -120.4061 142° Southeast 468 539 36,800 2,115 Climbing Oakland Center
22:25 37.8500 -120.3086 143° Southeast 461 531 38,700 1,033 Climbing Oakland Center
22:26 37.7486 -120.2106 143° Southeast 459 528 38,900 98 Climbing Oakland Center
22:27 37.6472 -120.1117 142° Southeast 460 529 38,900  Level Oakland Center
22:28 37.5419 -120.0189 145° Southeast 461 531 38,900  Level Oakland Center
22:29 37.4411 -119.9214 142° Southeast 456 525 38,900  Level Oakland Center
22:30 37.3406 -119.8231 142° Southeast 458 527 38,900  Level Oakland Center
22:31 37.2431 -119.7297 143° Southeast 455 524 38,900  Level Oakland Center
22:32 37.1428 -119.6322 142° Southeast 456 525 38,900  Level Oakland Center
22:33 37.0017 -119.5983 169° South 433 498 38,900  Level Oakland Center
22:34 36.8811 -119.5983 180° South 432 497 38,900  Level Oakland Center
22:35 36.7667 -119.6292 192° South 421 484 38,900  Level Oakland Center
22:36 36.6653 -119.6967 208° Southwest 415 478 38,900  Level Oakland Center
22:37 36.5611 -119.7672 209° Southwest 423 487 38,900  Level Oakland Center
22:38 36.4589 -119.8361 208° Southwest 419 482 38,900  Level Oakland Center
22:39 36.3569 -119.9036 208° Southwest 417 480 38,900  Level Oakland Center
22:40 36.2558 -119.9714 208° Southwest 415 478 38,900  Level Oakland Center
22:41 36.1400 -119.9775 182° South 435 501 38,900  Level Oakland Center
22:42 36.0206 -119.9294 162° South 446 513 38,900  Level Oakland Center
22:43 35.9050 -119.8881 164° South 433 498 38,900  Level Oakland Center
22:44 35.7878 -119.8439 163° South 437 503 38,900  Level Oakland Center
22:45 35.6692 -119.7983 163° South 442 509 38,900 -393 Level Oakland Center
22:46 35.5517 -119.7531 163° South 441 507 38,100 -885 Descending Oakland Center
22:47 35.4339 -119.7086 163° South 439 505 37,100 -966 Descending Oakland Center
22:48 35.3183 -119.6656 163° South 436 502 36,200 -966 Descending Los Angeles Center
22:49 35.2075 -119.5997 154° Southeast 444 511 35,200 -934 Descending Los Angeles Center
22:50 35.1053 -119.5114 145° Southeast 448 516 34,300 -934 Descending Los Angeles Center
22:51 35.0031 -119.4261 146° Southeast 445 512 33,300 -1,707 Descending Los Angeles Center
22:52 34.9028 -119.3403 145° Southeast 442 509 30,800 -2,488 Descending Los Angeles Center
22:53 34.8025 -119.2553 145° Southeast 438 504 28,200 -2,754 Descending Los Angeles Center
22:54 34.6844 -119.1553 145° Southeast 433 498 25,200 -2,557 Descending Los Angeles Center
22:55 34.5983 -119.0831 145° Southeast 428 493 23,000 -2,311 Descending Los Angeles Center
22:56 34.5044 -119.0050 146° Southeast 407 468 20,500 -2,410 Descending Los Angeles Center
22:57 34.4131 -118.9294 146° Southeast 395 455 18,100 -2,537 Descending Los Angeles Center
22:58 34.2967 -118.8583 153° Southeast 389 448 15,300 -2,634 Descending Los Angeles Center
22:59 34.1972 -118.8231 164° South 376 433 12,700 -1,756 Descending Los Angeles Center
23:00 34.1039 -118.7881 163° South 349 402 11,700 -1,268 Descending Los Angeles Center
23:01 34.0358 -118.7253 143° Southeast 312 359 10,100 -984 Descending Los Angeles Center
23:02 34.0272 -118.6342 96° East 271 312 9,700 -787 Descending Los Angeles Center
23:03 34.0192 -118.5492 96° East 257 296 8,500 -1,131 Descending Los Angeles Center
23:04 34.0106 -118.4653 97° East 253 291 7,400 -885 Descending Los Angeles Center
23:05 34.0161 -118.3992 84° East 225 259 6,700 -976 Descending Los Angeles Center
23:06 34.0200 -118.3325 86° East 204 235 5,400 -1,317 Descending Los Angeles Center
23:07 34.0275 -118.2669 82° East 198 228 4,000 -1,230 Descending Los Angeles Center
23:08 33.9917 -118.2406 149° Southeast 189 217 2,900 -984 Descending Los Angeles Center
23:09 33.9639 -118.2881 235° Southwest 160 184 2,000 -787 Descending Los Angeles Center
23:10 33.9586 -118.3342 262° West 146 168 1,300 -732 Descending Los Angeles Center
23:11 33.9556 -118.3803 265° West 142 163 500 -585 Descending Los Angeles Center
23:12 33.9511 -118.4194 262° West 140 161 100 -393 Descending Los Angeles Center
23:14 33.9425 -118.4081 228° Southwest  Level Estimated
23:21 33.9425 -118.4081 228° Southwest  Level Estimated